SCP
0 0 0 0 0 0 0 0 0 0 0 0 0 0 0 0 0 0 0 0 0 0 0 0 0 0 0 0 0 0 0 0 0 0 0 0 0 0 0 0 0 0 0
0 0 0 0 0 0 0 0 0 0 0 0 0 0 0 0 0 0 0 0 0 0 0 0 0 0 0 0 0 0 0 0 0 0 0 0 0 0 0 0 0 0 0
0 0 0 0 0 0 0 0 0 0 0 0 0 0 0 0 0 0 0 0 0 0 0 0 0 0 0 0 0 0 0 0 0 0 0 0 0 0 0 0 0 0 0
0 0 0 0 0 0 0 0 0 0 0 0 0 0 0 0 0 0 0 0 0 0 0 0 0 0 0 0 0 0 0 0 0 0 0 0 0 0 0 0 0 0 0
0 0 0 0 0 0 0 0 0 0 0 0 0 0 0 0 0 0 0 0 0 0 0 0 0 0 0 0 0 0 0 0 0 0 0 0 0 0 0 0 0 0 0
0 0 0 0 0 0 0 0 0 0 0 0 0 0 0 0 0 0 0 0 0 0 0 0 0 0 0 0 0 0 0 0 0 0 0 0 0 0 0 0 0 0 0
0 0 0 0 0 0 0 0 0 0 0 0 0 0 0 0 0 0 0 0 0 0 0 0 0 0 0 0 0 0 0 0 0 0 0 0 0 0 0 0 0 0 0
0 0 0 0 0 0 0 0 0 0 0 0 0 0 0 0 0 0 0 0 0 0 0 0 0 0 0 0 0 0 0 0 0 0 0 0 0 0 0 0 0 0 0
0 0 0 0 0 0 0 0 0 0 0 0 0 0 0 0 0 0 0 0 0 0 0 0 0 0 0 0 0 0 0 0 0 0 0 0 0 0 0 0 0 0 0
0 0 0 0 0 0 0 0 0 0 0 0 0 0 0 0 0 0 0 0 0 0 0 0 0 0 0 0 0 0 0 0 0 0 0 0 0 0 0 0 0 0 0
0 0 0 0 0 0 0 0 0 0 0 0 0 0 0 0 0 0 0 0 0 0 0 0 0 0 0 0 0 0 0 0 0 0 0 0 0 0 0 0 0 0 0
0 0 0 0 0 0 0 0 0 0 0 0 0 0 0 0 0 0 0 0 0 0 0 0 0 0 0 0 0 0 0 0 0 0 0 0 0 0 0 0 0 0 0
0 0 0 0 0 0 0 0 0 0 0 0 0 0 0 0 0 0 0 0 0 0 0 0 0 0 0 0 0 0 0 0 0 0 0 0 0 0 0 0 0 0 0
0 0 0 0 0 0 0 0 0 0 0 0 0 0 0 0 0 0 0 0 0 0 0 0 0 0 0 0 0 0 0 0 0 0 0 0 0 0 0 0 0 0 0
0 0 0 0 0 0 0 0 0 0 0 0 0 0 0 0 0 0 0 0 0 0 0 0 0 0 0 0 0 0 0 0 0 0 0 0 0 0 0 0 0 0 0
0 0 0 0 0 0 0 0 0 0 0 0 0 0 0 0 0 0 0 0 0 0 0 0 0 0 0 0 0 0 0 0 0 0 0 0 0 0 0 0 0 0 0
0 0 0 0 0 0 0 0 0 0 0 0 0 0 0 0 0 0 0 0 0 0 0 0 0 0 0 0 0 0 0 0 0 0 0 0 0 0 0 0 0 0 0
0 0 0 0 0 0 0 0 0 0 0 0 0 0 0 0 0 0 0 0 0 0 0 0 0 0 0 0 0 0 0 0 0 0 0 0 0 0 0 0 0 0 0
0 0 0 0 0 0 0 0 0 0 0 0 0 0 0 0 0 0 0 0 0 0 0 0 0 0 0 0 0 0 0 0 0 0 0 0 0 0 0 0 0 0 0
0 0 0 0 0 0 0 0 0 0 0 0 0 0 0 0 0 0 0 0 0 0 0 0 0 0 0 0 0 0 0 0 0 0 0 0 0 0 0 0 0 0 0
0 0 0 0 0 0 0 0 0 0 0 0 0 0 0 0 0 0 0 0 0 0 0 0 0 0 0 0 0 0 0 0 0 0 0 0 0 0 0 0 0 0 0
0 0 0 0 0 0 0 0 0 0 0 0 0 0 0 0 0 0 0 0 0 0 0 0 0 0 0 0 0 0 0 0 0 0 0 0 0 0 0 0 0 0 0
0 0 0 0 0 0 0 0 0 0 0 0 0 0 0 0 0 0 0 0 0 0 0 0 0 0 0 0 0 0 0 0 0 0 0 0 0 0 0 0 0 0 0
0 0 0 0 0 0 0 0 0 0 0 0 0 0 0 0 0 0 0 0 0 0 0 0 0 0 0 0 0 0 0 0 0 0 0 0 0 0 0 0 0 0 0
0 0 0 0 0 0 0 0 0 0 0 0 0 0 0 0 0 0 0 0 0 0 0 0 0 0 0 0 0 0 0 0 0 0 0 0 0 0 0 0 0 0 0
0 0 0 0 0 0 0 0 0 0 0 0 0 0 0 0 0 0 0 0 0 0 0 0 0 0 0 0 0 0 0 0 0 0 0 0 0 0 0 0 0 0 0
Wind_Speed
7 7 6 5 5 4 4 5 5 6 6 6 7 7 7 7 7 7 6 14 15 17 18 18 18 18 18 19 19 19 20 20 21 21 21 21 21 22 22 22 23 23 24
7 7 6 5 5 5 5 5 6 6 5 5 7 7 7 6 7 6 6 9 15 15 15 16 16 17 17 17 18 18 18 19 19 19 20 20 20 21 21 21 22 22 23
9 8 7 6 5 5 7 6 7 6 6 6 7 6 5 6 6 6 6 5 6 12 13 14 15 15 15 16 16 16 17 17 18 18 18 18 19 19 20 20 21 21 22
10 8 7 7 7 7 6 7 7 6 6 5 5 5 5 5 6 5 5 5 4 5 9 13 13 13 14 14 14 15 15 16 16 16 17 17 18 18 19 19 20 20 21
11 10 8 8 9 7 7 8 6 7 8 6 6 5 4 4 4 6 6 5 5 4 4 9 13 12 12 12 13 13 14 14 15 15 15 16 16 17 18 18 19 20 20
11 10 9 10 10 9 8 8 8 6 7 7 7 6 4 3 4 4 5 4 4 4 4 4 4 7 11 11 11 11 12 13 13 13 14 14 15 16 16 17 18 19 19
11 11 9 11 11 10 11 11 10 10 7 8 6 4 3 3 3 3 4 3 3 4 4 4 3 2 3 9 9 9 10 11 11 12 12 13 14 14 15 16 17 18 19
11 11 13 12 12 10 11 10 12 8 6 7 6 5 3 1 2 3 3 4 4 3 3 4 3 3 3 2 4 8 8 9 9 10 11 11 12 13 14 15 16 17 18
11 11 14 13 14 13 13 15 16 12 10 8 5 7 7 7 3 2 4 4 4 3 3 4 4 3 4 2 2 4 6 6 7 8 9 10 11 12 13 14 15 17 18
10 12 13 14 15 13 14 16 16 9 13 11 6 4 4 7 7 4 2 4 5 5 5 5 5 4 4 3 3 3 3 4 5 6 7 8 9 11 12 14 15 16 17
9 11 13 13 14 13 15 15 14 10 10 11 8 5 3 3 4 6 5 4 4 4 5 5 5 4 4 4 4 3 2 1 2 3 5 7 8 10 11 13 14 16 17
7 10 11 13 13 12 14 15 16 14 12 11 7 6 7 7 6 6 5 4 4 4 5 5 5 5 5 4 6 7 5 3 1 2 4 6 7 9 11 13 14 15 17
7 10 10 11 11 11 13 13 14 14 12 12 11 8 6 5 5 5 6 5 4 3 4 4 5 6 6 5 5 9 7 6 4 4 5 6 8 9 11 12 14 15 16
8 9 11 11 11 12 13 13 11 12 11 11 12 10 6 6 5 5 7 7 5 3 4 5 4 7 6 6 8 11 6 9 7 6 7 8 9 10 11 13 14 15 16
7 10 11 11 11 12 13 13 11 13 11 11 11 10 7 6 5 5 5 7 9 8 8 7 5 7 7 6 10 6 5 9 9 9 9 10 10 11 12 13 15 16 17
8 10 11 11 11 11 12 12 10 11 12 11 8 10 8 5 5 5 5 5 5 7 6 5 4 5 7 7 11 7 6 11 11 11 11 11 12 12 13 14 15 16 17
8 10 11 11 11 11 11 12 11 12 14 12 10 11 11 8 7 6 5 5 4 5 5 3 2 4 7 7 5 5 5 5 5 12 13 13 13 14 15 15 16 17 18
8 9 10 10 11 11 11 12 13 13 14 15 13 13 12 10 10 8 7 6 5 5 6 5 3 3 4 6 5 5 5 5 5 11 14 14 15 15 15 16 16 17 18
8 8 9 11 11 11 11 11 12 13 14 14 14 15 14 14 12 9 9 7 5 4 4 5 4 2 2 3 3 4 4 4 5 8 13 15 15 15 16 16 17 18 18
9 9 9 10 10 10 11 10 10 11 11 11 12 13 14 15 15 13 10 9 7 6 6 6 4 3 2 3 3 3 3 4 5 5 9 10 12 15 15 16 17 17 18
8 8 8 8 8 9 9 11 11 11 11 11 10 11 12 13 15 14 11 11 10 7 6 5 4 3 3 3 4 4 4 3 4 4 4 5 5 4 6 11 14 16 18
7 8 9 9 9 8 13 18 14 11 11 11 11 10 9 11 15 18 18 17 16 11 9 6 4 5 6 5 4 4 3 2 3 3 3 4 3 5 5 4 12 17 18
7 8 8 9 10 12 17 18 17 10 10 11 11 11 9 9 11 10 14 16 13 14 14 9 7 7 5 6 5 5 5 5 5 2 1 4 3 6 4 7 15 17 17
7 7 8 8 8 9 16 17 16 10 8 9 10 11 11 11 11 12 11 9 8 8 10 7 6 6 5 5 5 5 5 4 4 3 3 4 3 4 5 4 12 16 16
6 6 6 7 8 8 14 15 15 7 7 8 8 9 10 11 18 19 13 11 9 6 9 10 9 8 9 10 7 3 3 3 5 4 4 4 3 3 3 4 6 12 13
5 5 5 6 6 6 11 15 16 6 7 6 7 8 11 14 19 21 12 11 10 8 7 6 8 10 9 10 13 8 6 6 5 4 3 3 2 1 4 3 2 2 5
Wind_Direction
160 156 158 160 160 140 133 117 110 104 93 83 77 74 76 78 74 61 49 58 77 88 91 91 88 85 83 80 77 74 72 69 66 63 61 58 56 53 50 48 45 42 39
165 161 157 159 152 146 136 129 124 110 99 94 88 80 78 80 83 77 61 52 60 76 88 91 89 87 85 81 78 76 73 71 68 64 61 58 56 53 50 47 44 41 38
168 163 159 159 151 140 132 126 118 111 110 103 95 86 81 79 83 82 75 61 48 54 76 88 90 89 87 84 80 77 74 71 68 65 61 58 55 52 48 45 41 38 35
169 163 162 161 152 145 141 137 136 132 122 118 110 100 88 83 84 84 77 72 60 47 56 75 83 88 88 86 83 79 75 72 68 64 60 56 52 49 45 42 38 34 31
171 167 167 163 156 152 149 149 146 144 135 125 114 104 96 92 92 92 84 79 81 78 57 67 64 73 83 84 84 82 78 73 68 63 58 54 49 45 41 37 34 30 27
174 168 166 164 161 157 157 155 150 142 134 131 116 97 92 100 98 107 107 96 99 104 90 73 50 56 74 80 82 81 79 74 68 61 56 50 45 41 36 32 28 25 21
177 172 167 166 168 170 168 162 150 144 140 134 111 95 69 83 110 126 127 124 114 110 107 94 76 55 56 65 71 76 75 72 67 59 52 46 40 35 30 26 22 19 15
181 177 172 172 173 170 164 163 155 147 159 169 142 132 137 189 227 166 144 147 149 139 133 123 113 101 94 51 66 72 68 66 62 55 48 40 33 28 23 19 15 12 9
185 182 178 175 176 175 176 173 172 164 170 191 185 157 160 183 177 190 187 169 165 164 156 145 144 140 136 114 73 63 69 62 54 47 39 32 25 19 15 11 8 5 1
190 187 182 181 181 181 181 182 183 179 169 179 201 209 167 146 150 161 201 193 183 181 177 174 162 164 152 142 142 124 88 70 52 39 28 20 13 9 5 2 359 357 354
197 192 187 186 187 186 184 184 187 185 181 183 179 168 147 137 136 143 174 193 197 198 184 178 171 174 176 169 161 168 171 114 44 22 11 4 359 356 353 352 350 349 347
201 201 194 192 191 190 187 188 189 192 192 190 185 174 167 164 177 160 154 164 186 201 184 181 179 179 184 180 177 180 201 225 271 323 336 338 339 340 340 341 341 341 340
202 206 201 199 195 193 190 187 190 196 194 194 192 191 190 186 160 152 135 143 157 172 178 193 191 182 186 180 179 191 208 224 249 277 299 310 318 323 327 329 332 332 332
202 199 204 205 199 193 191 189 191 196 197 199 199 190 190 195 173 163 153 144 142 157 185 201 187 188 185 182 192 197 211 223 240 263 280 292 301 309 315 319 322 324 325
191 193 200 204 200 195 193 189 193 195 196 199 199 193 191 188 182 175 157 153 150 165 198 199 187 189 183 181 198 192 205 225 238 257 272 282 290 298 305 309 313 316 318
186 186 192 200 201 198 195 192 192 193 196 198 191 187 187 180 177 171 166 166 151 151 174 184 180 172 176 185 198 193 210 229 242 256 265 273 282 289 296 301 305 308 312
187 186 188 194 198 199 196 196 195 191 196 195 189 187 188 178 176 175 168 163 158 138 139 156 141 146 164 180 190 194 211 223 240 254 261 268 275 283 289 295 299 303 307
193 187 185 192 197 198 198 199 196 193 195 194 191 186 186 179 179 176 173 170 163 146 136 148 151 149 175 184 187 200 212 220 227 252 261 267 272 279 285 290 294 298 304
192 186 186 193 197 197 198 202 200 197 198 197 191 188 185 178 181 176 173 169 158 140 127 140 150 145 154 167 183 211 222 226 232 249 260 265 268 275 282 286 292 298 301
191 190 193 197 198 197 198 199 200 199 198 197 193 190 185 183 182 175 171 166 153 140 130 135 138 148 160 161 169 209 235 231 238 240 250 256 265 273 280 287 292 296 298
193 187 190 198 198 198 200 197 197 198 196 194 192 189 187 185 181 174 169 165 158 150 144 144 154 150 172 173 197 196 222 239 248 232 240 247 258 259 269 280 288 292 296
189 185 192 196 201 206 207 205 198 197 195 191 189 185 179 175 178 179 176 170 166 160 160 161 174 185 200 196 189 194 204 220 259 232 224 253 237 256 255 252 281 292 297
188 193 197 198 206 212 211 209 203 194 195 192 185 178 173 172 166 164 171 171 174 177 171 168 180 196 196 193 187 203 211 219 235 223 235 269 238 256 257 270 287 293 298
190 195 199 201 206 214 214 210 200 193 192 188 182 176 171 168 170 161 158 162 171 183 184 185 190 195 191 183 188 199 208 230 255 234 198 261 258 255 263 260 281 289 297
190 194 193 197 205 212 212 209 197 187 187 183 174 170 170 169 177 173 165 168 176 194 202 201 206 215 220 220 208 188 196 217 257 246 196 227 264 281 270 254 268 285 299
187 184 191 195 200 203 209 209 199 185 183 174 167 171 178 177 181 181 174 173 183 191 186 199 214 226 226 229 228 215 207 219 238 253 196 200 239 313 302 282 256 290 298